User: anonymous   Login
Location: Crayja
(6.2254°N, 10.6273°W)
Time: 06:41:31
(UTC+00:00)
Language:

STARLINK-79 - Orbit

View from above orbital plane
View from above orbital plane
View from above satellite
View from above satellite

Ground track
Ground track

The orbit data is extracted from the following two-line orbital elements,

1 44288C 19029BF  20152.83419745  .00883512  00000-0  34074-1 0  1525
2 44288  53.0069 286.0937 0001422 120.4380 100.2438 15.24893677    14
Epoch (UTC): 31 May 2020 20:01:14
Eccentricity: 0.0001422
inclination: 53.0069°
perigee height: 490 km
apogee height: 492 km
right ascension of ascending node: 286.0937°
argument of perigee: 120.4380°
revolutions per day: 15.24893677
mean anomaly at epoch: 100.2438°
orbit number at epoch: 1

The dashed part of the orbit path shows where the satellite is in the earth's shadow,  

DLR